TimeCDT,TemperatureF,Dew PointF,Humidity,Sea Level PressureIn,VisibilityMPH,Wind Direction,Wind SpeedMPH,Gust SpeedMPH,PrecipitationIn,Events,Conditions,WindDirDegrees,DateUTC
12:53 AM,78.1,63.0,60,29.99,10.0,SSE,6.9,-,N/A,,Clear,160,2012-05-26 05:53:00
1:53 AM,75.9,63.0,64,30.01,10.0,South,5.8,-,N/A,,Clear,180,2012-05-26 06:53:00
2:53 AM,75.0,64.0,69,30.01,10.0,South,5.8,-,N/A,,Clear,170,2012-05-26 07:53:00
3:53 AM,70.0,64.0,81,30.04,10.0,Calm,Calm,-,N/A,,Clear,0,2012-05-26 08:53:00
4:53 AM,70.0,64.0,81,30.02,10.0,Calm,Calm,-,N/A,,Clear,0,2012-05-26 09:53:00
5:53 AM,69.1,64.0,84,30.03,10.0,Calm,Calm,-,N/A,,Clear,0,2012-05-26 10:53:00
6:53 AM,72.0,64.9,78,30.05,10.0,Calm,Calm,-,N/A,,Clear,0,2012-05-26 11:53:00
7:53 AM,77.0,66.9,71,30.06,10.0,South,8.1,-,N/A,,Clear,190,2012-05-26 12:53:00
8:53 AM,81.0,66.9,62,30.08,10.0,SSW,11.5,18.4,N/A,,Clear,210,2012-05-26 13:53:00
9:53 AM,82.9,68.0,60,30.09,10.0,SSW,9.2,-,N/A,,Clear,200,2012-05-26 14:53:00
10:53 AM,87.1,66.9,51,30.07,10.0,SSW,15.0,-,N/A,,Clear,210,2012-05-26 15:53:00
11:53 AM,90.0,64.9,43,30.06,10.0,South,15.0,21.9,N/A,,Clear,190,2012-05-26 16:53:00
12:53 PM,91.9,63.0,38,30.04,10.0,SSW,16.1,21.9,N/A,,Clear,200,2012-05-26 17:53:00
1:53 PM,93.9,60.1,32,30.02,10.0,South,13.8,21.9,N/A,,Clear,190,2012-05-26 18:53:00
2:53 PM,93.9,60.1,32,30.01,10.0,SW,13.8,21.9,N/A,,Clear,220,2012-05-26 19:53:00
3:53 PM,93.9,61.0,33,29.99,10.0,SSW,17.3,-,N/A,,Clear,200,2012-05-26 20:53:00
4:53 PM,93.9,63.0,36,29.98,10.0,South,13.8,-,N/A,,Clear,190,2012-05-26 21:53:00
5:53 PM,93.0,61.0,34,29.97,9.0,South,10.4,-,N/A,,Clear,190,2012-05-26 22:53:00
6:53 PM,90.0,59.0,35,29.98,10.0,SSW,10.4,-,N/A,,Clear,200,2012-05-26 23:53:00
7:53 PM,86.0,59.0,40,29.97,10.0,South,6.9,-,N/A,,Clear,190,2012-05-27 00:53:00
8:53 PM,84.0,57.9,41,29.98,10.0,South,6.9,-,N/A,,Clear,190,2012-05-27 01:53:00
9:53 PM,82.0,59.0,45,29.99,10.0,SSW,6.9,-,N/A,,Clear,200,2012-05-27 02:53:00
10:53 PM,78.1,61.0,56,30.00,10.0,SSW,5.8,-,N/A,,Clear,200,2012-05-27 03:53:00
11:53 PM,77.0,61.0,58,30.00,10.0,South,5.8,-,N/A,,Clear,180,2012-05-27 04:53:00